Regional Weather Roundup
Issued by NWS Kansas City/Pleasant Hill, MO

Home | Current Version | Previous Version | Graphics & Text | Print | Product List | Glossary Off
Versions: 1 2 3 4 5 6 7 8 9 10 11 12 13 14 15 16 17 18 19 20 21 22 23 24 25 26 27 28 29 30 31 32 33 34 35 36 37 38 39 40 41 42 43 44 45 46 47 48 49 50

000
ASUS43 KEAX 031910
RWREAX

WEATHER ROUNDUP FOR EASTERN KANSAS AND NORTHWEST MISSOURI
NATIONAL WEATHER SERVICE KANSAS CITY/PLEASANT HILL MO
200 PM CDT SUN MAY 03 2015

KSZ040-057-103>105-MOZ028-029-037-043-032000-
...KANSAS CITY METROPOLITAN AREA...

CITY           SKY/WX    TMP DP  RH WIND       PRES   REMARKS
K.C. INTL      MOSUNNY   80  57  45 SW22      29.83F
K.C. DOWNTOWN  MOSUNNY   83  57  41 S16G29    29.83F
LEES SUMMIT    PTSUNNY   77  57  50 S14G23    29.86S
OLATHE - IXD   PTSUNNY   80  56  43 S21G32    29.86F
OLATHE - OJC   PTSUNNY   79  57  46 S25G32    29.84F
LAWRENCE       PTSUNNY   81  57  43 S24G30    29.83F

$$

MOZ001>008-011>017-020>025-030>033-038>040-044>046-053-054-032000-
...NORTHERN AND CENTRAL MISSOURI...

CITY           SKY/WX    TMP DP  RH WIND       PRES   REMARKS
ST. JOSEPH     SUNNY     83  58  42 S20G28    29.80F
MOSBY          PTCLDY    81  54  39 S20G26    29.84S
WARRENSBURG    PTSUNNY   79  54  41 S16G22    29.87F
WHITEMAN AFB   PTSUNNY   80  58  47 S21G30    29.88F
CLINTON        PTSUNNY   81  57  44 S16G24    29.91F
SEDALIA        PTSUNNY   81  56  42 S20G25    29.92F
WARSAW         NOT AVBL
MARSHALL       PTSUNNY   84  57  39 S20G26    29.90F HAZE
CHILLICOTHE      N/A     81  60  48 S14G21    29.85F
MOBERLY        MOSUNNY   81  52  36 S17G26    29.91F
KIRKSVILLE     MOSUNNY   81  59  47 SW16G26   29.88F

$$

MOZ041-047>049-056>058-063>065-088>090-097-032000-
...EASTERN AND SOUTHERN MISSOURI...

CITY           SKY/WX    TMP DP  RH WIND       PRES   REMARKS
ST. LOUIS INTL PTSUNNY   83  51  33 S9G20     29.97F
SPIRIT OF STL  MOSUNNY   82  50  32 SW13      29.95F
COLUMBIA       PTSUNNY   81  57  43 S16       29.94F
JEFFERSON CITY PTSUNNY   81  54  39 SW12G22   29.93F
MEXICO         MOSUNNY   84  59  42 S16G22    29.94F
HANNIBAL       MOSUNNY   84  50  30 SW20      29.91F
ROLLA          MOSUNNY   79  54  41 S13G26    29.96F
LEBANON        SUNNY     81  50  34 SW17      29.99S
OSAGE BEACH    SUNNY     82  54  36 SW17G24   29.95F
SPRINGFIELD    SUNNY     79  55  43 S21G26    29.98F
BRANSON        PTSUNNY   79  54  41 W14G21    30.03F
NEVADA         MOSUNNY   79  59  50 S18G28    29.94S
JOPLIN         MOSUNNY   80  56  43 S20       29.96S
WEST PLAINS    MOSUNNY   77  52  41 SW10      30.04F

$$

IAZ060-094-KSZ022-034>040-054-083-096-NEZ052-066-093-032000-
...KANSAS...SOUTHEAST NEBRASKA AND IOWA...

CITY           SKY/WX    TMP DP  RH WIND       PRES   REMARKS
TOPEKA         PTSUNNY   81  58  45 S16G24    29.81F
MANHATTAN      PTSUNNY   83  59  44 S16G25    29.78F
EMPORIA        MOSUNNY   82  58  43 S16G24    29.84F
CHANUTE        MOSUNNY   78  58  49 S22G31    29.90F
WICHITA        MOSUNNY   79  55  43 S21       29.85S
OMAHA          PTSUNNY   81  59  47 S14       29.74F
LINCOLN        PTSUNNY   77  65  66 SE8       29.74S
FALLS CITY     MOSUNNY   78  58  49 S12G20    29.77F
LAMONI         SUNNY     80  59  48 S20G26    29.81F
DES MOINES     MOSUNNY   80  58  46 S14G21    29.80F

$$




USA.gov is the U.S. government's official web portal to all federal, state and local government web resources and services.